Regional Weather Roundup
Issued by NWS Little Rock, AR

Home | Current Version | Previous Version | Text Only | Print | Product List | Glossary On
Versions: 1 2 3 4 5 6 7 8 9 10 11 12 13 14 15 16 17 18 19 20 21 22 23 24 25 26 27 28 29 30 31 32 33 34 35 36 37 38 39 40 41 42 43 44 45 46 47 48 49
000
ASUS44 KLZK 291805
RWRLZK

WEATHER ROUNDUP FOR ARKANSAS
NATIONAL WEATHER SERVICE LITTLE ROCK AR
100 PM CDT FRI MAY 29 2015

NOTE: "FAIR" INDICATES FEW OR NO CLOUDS BELOW 12,000 FEET WITH NO
SIGNIFICANT WEATHER AND/OR OBSTRUCTIONS TO VISIBILITY.

ARZ001-003-010-029-291900-
NORTHWEST ARKANSAS

CITY           SKY/WX    TMP DP  RH WIND       PRES   REMARKS
FAYETTEVILLE   CLOUDY    77  71  82 CALM      30.00F
6HR MIN TEMP:  67; 6HR MAX TEMP:  77; 6HR PCP:  0.22;

FORT SMITH     CLOUDY    78  70  76 E6        29.96F
6HR MIN TEMP:  68; 6HR MAX TEMP:  78; 6HR PCP:  0.21;

HARRISON       PTSUNNY   79  67  66 SE8       30.02F
6HR MIN TEMP:  69; 6HR MAX TEMP:  81;

BENTONVILLE    CLOUDY    75  66  73 CALM      30.01F
6HR MIN TEMP:  70; 6HR MAX TEMP:  77; 6HR PCP:  0.11;

ROGERS         CLOUDY    75  69  81 SE7       30.02F
6HR MIN TEMP:  67; 6HR MAX TEMP:  75;

SILOAM SPGS    CLOUDY    75  66  73 SE5       30.01F
6HR MIN TEMP:  66; 6HR MAX TEMP:  75; 6HR PCP:  0.08;

SPRINGDALE     PTSUNNY   77  72  83 E6        30.03F
$$

ARZ004-005-016-291900-
NORTH CENTRAL ARKANSAS

CITY           SKY/WX    TMP DP  RH WIND       PRES   REMARKS
BATESVILLE     PTSUNNY   84  72  65 SE5       30.02F HX  89
6HR MIN TEMP:  70; 6HR MAX TEMP:  84;

FLIPPIN          N/A     82  72  69 E7        30.00F HX  87
6HR MIN TEMP:  64; 6HR MAX TEMP:  82;

MTN HOME       PTSUNNY   82  69  64 VRB7      30.01F HX  85
6HR MIN TEMP:  66; 6HR MAX TEMP:  82;

$$

ARZ040-041-291900-
WEST CENTRAL ARKANSAS

CITY           SKY/WX    TMP DP  RH WIND       PRES   REMARKS
MENA           CLOUDY    81  72  74 SE6       29.99S
MOUNT IDA      CLOUDY    81  70  69 SE8       29.97S
6HR MIN TEMP:  69; 6HR MAX TEMP:  81;

$$

ARZ009-017-025-026-028-291900-
NORTHEAST ARKANSAS

CITY           SKY/WX    TMP DP  RH WIND       PRES   REMARKS
JONESBORO      PTSUNNY   82  71  69 SE9       30.04F HX  86
6HR MIN TEMP:  66; 6HR MAX TEMP:  83;

NEWPORT        PTSUNNY   86  71  60 SW9       30.04F HX  91
6HR MIN TEMP:  70; 6HR MAX TEMP:  86;

WALNUT RIDGE   PTSUNNY   84  70  61 S8        30.04F HX  88
6HR MIN TEMP:  70; 6HR MAX TEMP:  84;

BLYTHEVILLE    MOSUNNY   85  71  63 SW10      30.06F HX  90
6HR MIN TEMP:  69; 6HR MAX TEMP:  85;

$$

ARZ022-023-033-042-044-291900-
CENTRAL ARKANSAS

CITY           SKY/WX    TMP DP  RH WIND       PRES   REMARKS
LITTLE ROCK    PTSUNNY   85  70  60 SE10G17   30.01F HX  89
6HR MIN TEMP:  69; 6HR MAX TEMP:  85;

N LITTLE ROCK  PTSUNNY   82  74  77 E8        30.01F HX  88
6HR MIN TEMP:  68; 6HR MAX TEMP:  83;

JACKSONVILLE   PTSUNNY   83  73  69 SE6       30.01F HX  89
6HR MIN TEMP:  66; 6HR MAX TEMP:  83; 6HR PCP: TRACE;

SEARCY         PTSUNNY   85  74  69 SE9       30.03F HX  92
6HR MIN TEMP:  67; 6HR MAX TEMP:  85;

HOT SPRINGS    CLOUDY    82  69  64 SE8       29.98F HX  85
6HR MIN TEMP:  69; 6HR MAX TEMP:  82;

RUSSELLVILLE   CLOUDY    82  73  74 E9G16     29.97F HX  87
6HR MIN TEMP:  68; 6HR MAX TEMP:  82;

$$

ARZ036-291900-
EAST ARKANSAS

CITY           SKY/WX    TMP DP  RH WIND       PRES   REMARKS
WEST MEMPHIS   MOSUNNY   83  74  74 S12       30.05F HX  89
6HR MIN TEMP:  69; 6HR MAX TEMP:  83;

$$

ARZ050-053-066-070-073-291900-
SOUTHWEST ARKANSAS

CITY           SKY/WX    TMP DP  RH WIND       PRES   REMARKS
ARKADELPHIA    FAIR      84  76  77 SE8       29.98F HX  92
6HR MIN TEMP:  68; 6HR MAX TEMP:  85; 6HR PCP: TRACE;

CAMDEN         PTSUNNY   84  70  61 NE13G21   29.99F HX  88
TEXARKANA      CLOUDY    82  73  74 SE14G22   29.96F HX  87
6HR MIN TEMP:  69; 6HR MAX TEMP:  82;

EL DORADO      PTSUNNY   83  71  67 E13G18    30.00F HX  87
6HR MIN TEMP:  69; 6HR MAX TEMP:  83;

DE QUEEN       CLOUDY    80  72  76 E22G40    29.94F
6HR MIN TEMP:  68; 6HR MAX TEMP:  80;

$$

ARZ056-057-069-291900-
SOUTHEAST ARKANSAS

CITY           SKY/WX    TMP DP  RH WIND       PRES   REMARKS
PINE BLUFF     PTSUNNY   86  71  60 SE15      30.02F HX  91
6HR MIN TEMP:  68; 6HR MAX TEMP:  86;

STUTTGART      PTSUNNY   84  72  65 MISG      30.04F HX  89
6HR MIN TEMP:  70; 6HR MAX TEMP:  84;

MONTICELLO     PTSUNNY   86  72  62 S9        30.03F HX  92
6HR MIN TEMP:  68; 6HR MAX TEMP:  86;


$$





USA.gov is the U.S. government's official web portal to all federal, state and local government web resources and services.